CZ-2D DEB

Satellite information

Favourite Embed

Satellite Type and Status

DEBRISIN ORBIT

Key statistics

Satellite CZ-2D DEB at a glance.

Uptime

5086

Days in orbit

Revolutions

≈ 14.4

Per day

Orbit

SSO

Sun Synchronous Orbit

Inclination

98.7

Latest

Satellite identification and parameters

Extended collection of information and parameters for CZ-2D DEB.

Object identification

Identified? True

Debris? True

Object name: CZ-2D DEB

International designator: 2011-068F

Object number (NORAD): 38178

Object ID (CCSDS): 38178

Country: PEOPLES REPUBLIC OF CHINA (PRC)

Current information (Y/N): Y

RCS size: SMALL

Orbital parameters

Period: 100.089 minutes

Inclination: 98.7477 deg

SMA: 7140.875 km

Apoapsis: 849.147 km

Periapsis: 676.332 km

RAAN: 315.1712 deg

Eccentricy: 0.01210035

Argument of periapsis: 45.1611 deg

Mean anomaly: 109.2367 deg

Mean motion: 14.38717939 rev/day

Mean motion (dot): 0.00002581 rev/day2

B* drag term: 0.00078652572 1/REarth

Two-line elements (TLE)

Creation date: Oct. 23, 2025, 2:46 a.m.

Reference frame: TEME

Reference center: EARTH

Epoch: Oct. 22, 2025, 12:33 p.m. UTC

TLE line 0: 0 CZ-2D DEB

TLE line 1: 1 38178U 11068F 25295.52319043 .00002581 00000-0 78653-3 0 9991

TLE line 2: 2 38178 98.7477 315.1712 0121004 45.1611 109.2367 14.38717939723920

Live tracking on map

Real-time ground track for satellite CZ-2D DEB.

In-orbit conjunctions

A list of the most updated potential collisions computed for object CZ-2D DEB.

Target Orbit TCA Probability of collision Miss distance Type
CZ-6 R/B LEO 2025-02-21 10:09:56 0.0001103727 637.0 (m) ROCKET BODY
LIBERTAD 1 SSO 2025-02-10 18:50:36 0.002793124 137.0 (m) PAYLOAD

Associated space launch

CZ-2D DEB was lifted into orbit during the mission ‘Long March 2D | Shiyan Weixing 4 & Chuang Xin 1C’, on board a Long March 2D space rocket.

The launch took place on Nov. 20, 2011, 12:15 a.m. from Launch Area 4 (SLS-2 / 603).

For more information about the launch, click the button.

Launch to space Long March 2D | Shiyan Weixing 4 & Chuang Xin 1C
Long March 2D | Shiyan Weixing 4 & Chuang Xin 1C

Agency: N/A

Status: Launch Successful

Launch date: Nov. 20, 2011, 12:15 a.m. UTC

Rocket: Long March 2D

Launch pad: Launch Area 4 (SLS-2 / 603)

Location: Jiuquan Satellite Launch Center, People's Republic of China

...

Latest news about this satellite

There are no fresh news available about this satellite. Check back as we update our databases every day.


Newsletter sign-up

Weekly statistics, charts and insights to help you stay on top of the space industry.